[[{"header":{"parameterUnit":"m.s-1","parameterCategory":2,"la1":30.2992,"la2":30.254,"lo1":-89.0895,"lo2":-89.0443,"dy":0.0025,"dx":0.0025,"nx":19,"ny":19,"refTime":"2026-05-18T03:00:00:Z","depth":"0","parameterNumber":2,"parameterNumberName":"U-component_of_CURRENTS"},"data":[0,0,0,0.1807,0.1809,0.1878,0.1878,0.1939,0.194,0,0,0,0,0,0,0,0,0,0,0,0.1777,0.1777,0.1807,0.1809,0.1878,0.1878,0.1939,0.194,0,0,0,0,0,0,0,0,0,0,0,0.1776,0.1777,0.1778,0.1809,0.1878,0.1878,0.1939,0.1892,0,0,0,0,0,0,0,0,0,0,0.1827,0.18,0.1777,0.1778,0.181,0.1878,0.1878,0.1889,0.1894,0.1902,0,0.1917,0,0.1936,0.1944,0.1944,0,0,0,0.1801,0.1796,0.1823,0.1778,0.181,0.1878,0.1845,0.1892,0.1898,0.1909,0.1918,0.192,0.1937,0.1944,0.1944,0.2022,0.2022,0,0,0.1797,0.178,0.182,0.1827,0.1833,0.1842,0.1847,0.1896,0.1898,0.1918,0.1922,0.1938,0.1945,0.1945,0.2022,0.2022,0,0,0,0.1792,0.1777,0.1804,0.1824,0.1843,0.1845,0.185,0.1895,0.1907,0.1923,0.1939,0.1945,0.1946,0.2021,0.2022,0.2089,0,0,0,0.1789,0.1775,0.1802,0.1791,0.1842,0.1873,0.1848,0.1903,0.191,0.1939,0.1945,0.1946,0.2021,0.2021,0.2086,0.2164,0,0,0,0.1773,0.1773,0.1785,0.1791,0.1826,0.1873,0.1887,0.1905,0.192,0.1944,0.1946,0.202,0.2021,0.2084,0.2158,0.2317,0,0,0,0.1748,0.1763,0.1784,0.1808,0.1826,0.1875,0.1887,0.192,0.194,0.1945,0.2021,0.2022,0.2083,0.2154,0.2312,0.2374,0.2405,0,0,0.1753,0.1763,0.1779,0.18,0.1845,0.1864,0.1926,0.1956,0.1957,0.2,0.2002,0.2087,0.2158,0.2316,0.2426,0.2456,0,0,0,0.1772,0.1784,0.18,0.1833,0.1871,0.1934,0.1958,0.199,0.2046,0.1977,0.2087,0.213,0.2228,0.2253,0.2276,0.2338,0.2026,0.2026,0.2026,0.1749,0.1782,0.1812,0.1861,0.1904,0.1981,0.2055,0.2106,0.2076,0.2116,0.2182,0.2349,0.237,0.239,0.2451,0.2153,0.2154,0.2154,0.2154,0.176,0.1777,0.1833,0.1876,0.1952,0.2017,0.2155,0.2185,0.2352,0.2254,0.2346,0.2317,0.2421,0.2476,0.2158,0.2158,0.2157,0.2157,0.2156,0.1741,0.1752,0.1788,0.1857,0.1951,0.2054,0.223,0.2338,0.2441,0.254,0.262,0.2618,0.2679,0.2595,0.2596,0.2597,0.2598,0.2599,0.2599,0.1698,0.1735,0.1757,0.1838,0.1891,0.2041,0.2286,0.2446,0.2683,0.2751,0.2751,0.275,0.2486,0.2483,0.2615,0.2612,0.261,0.2609,0.2608,0.1662,0.1677,0.1707,0.1745,0.1879,0.2004,0.2258,0.2622,0.284,0.2975,0.3078,0.288,0.2896,0.2874,0.2881,0.311,0.311,0.311,0.311,0.1621,0.1636,0.1659,0.1704,0.1819,0.1984,0.2241,0.2574,0.3023,0.3239,0.3319,0.3194,0.317,0.3193,0.3165,0.3174,0.3472,0.3473,0.3473,0.159,0.1608,0.1603,0.1656,0.1768,0.1965,0.2151,0.2449,0.3128,0.3491,0.3407,0.3392,0.3199,0.3157,0.3172,0.3128,0.3132,0,0]},{"header":{"parameterUnit":"m.s-1","parameterCategory":2,"la1":30.2992,"la2":30.254,"lo1":-89.0895,"lo2":-89.0443,"dy":0.0025,"dx":0.0025,"nx":19,"ny":19,"refTime":"2026-05-18T03:00:00:Z","depth":"0","parameterNumber":3,"parameterNumberName":"V-component_of_CURRENTS"},"data":[0,0,0,-0.0089,-0.0091,-0.018,-0.0181,-0.0306,-0.0307,0,0,0,0,0,0,0,0,0,0,0,-0.0057,-0.0057,-0.0089,-0.0091,-0.018,-0.0181,-0.0306,-0.0307,0,0,0,0,0,0,0,0,0,0,0,-0.0057,-0.0057,-0.0058,-0.0091,-0.018,-0.0181,-0.0305,-0.0238,0,0,0,0,0,0,0,0,0,0,-0.0151,-0.0111,-0.0057,-0.0058,-0.0092,-0.018,-0.0181,-0.0235,-0.0242,-0.0265,0,-0.0272,0,-0.0289,-0.0314,-0.0315,0,0,0,-0.0102,-0.0104,-0.0132,-0.0058,-0.0092,-0.018,-0.0143,-0.0239,-0.0247,-0.0275,-0.0273,-0.0278,-0.0291,-0.0315,-0.0316,-0.0375,-0.0375,0,0,-0.0097,-0.0074,-0.0126,-0.0137,-0.0107,-0.014,-0.0146,-0.0244,-0.0247,-0.0274,-0.0281,-0.0293,-0.0316,-0.0317,-0.0375,-0.0375,0,0,0,-0.0076,-0.007,-0.0096,-0.0131,-0.0145,-0.0142,-0.0149,-0.0243,-0.0252,-0.0283,-0.0294,-0.0316,-0.0318,-0.0375,-0.0375,-0.0231,0,0,0,-0.0073,-0.0057,-0.0093,-0.008,-0.0143,-0.0192,-0.0146,-0.0245,-0.0257,-0.0294,-0.0317,-0.0319,-0.0376,-0.0375,-0.0235,-0.009,0,0,0,-0.0055,-0.0055,-0.0064,-0.0079,-0.0113,-0.0191,-0.0206,-0.0248,-0.0264,-0.0315,-0.0319,-0.0376,-0.0375,-0.0239,-0.01,0.0086,0,0,0,-0.0032,-0.0032,-0.0063,-0.0069,-0.0112,-0.0147,-0.0206,-0.0244,-0.0281,-0.0317,-0.0376,-0.0375,-0.024,-0.0106,0.0078,0.023,0.0279,0,0,-0.0018,-0.003,-0.0034,-0.0063,-0.0073,-0.0136,-0.0134,-0.0211,-0.0283,-0.0347,-0.0349,-0.0234,-0.0101,0.0085,0.0256,0.0306,0,0,0,-0.002,-0.0014,-0.0026,-0.0039,-0.0079,-0.0065,-0.0157,-0.0178,-0.0222,-0.0302,-0.0265,-0.0184,-0.0071,-0.0,0.0038,-0.0182,-0.0373,-0.0373,-0.0373,0.0043,0.0019,0.0031,0.0009,-0.0,-0.0031,-0.0009,-0.0056,-0.0171,-0.0163,-0.0094,0.0119,0.0188,0.0221,-0.0012,-0.0169,-0.0169,-0.0168,-0.0168,0.0099,0.0119,0.0104,0.0113,0.0118,0.0132,0.0137,0.0101,0.0179,0.0016,0.0117,0.0114,0.0274,0.0009,-0.0159,-0.0161,-0.0162,-0.0163,-0.0163,0.0165,0.0175,0.0173,0.021,0.0278,0.028,0.0483,0.0442,0.0372,0.0459,0.0563,0.0561,0.0363,0.0509,0.051,0.0512,0.0513,0.0514,0.0515,0.0241,0.0238,0.029,0.0328,0.0404,0.0565,0.071,0.0832,0.0898,0.0806,0.0806,0.0412,0.0328,0.034,0.0537,0.0533,0.053,0.0528,0.0526,0.0332,0.0328,0.0419,0.0489,0.0702,0.0994,0.1094,0.138,0.1445,0.1513,0.0924,0.0988,0.0992,0.0957,0.0985,0.1338,0.1338,0.1338,0.1338,0.0404,0.0402,0.0567,0.0739,0.0993,0.1215,0.1684,0.1844,0.1589,0.1367,0.1126,0.0911,0.0888,0.0868,0.0836,0.0852,0.1163,0.1162,0.1161,0.0478,0.0515,0.068,0.0844,0.1141,0.1515,0.1963,0.2134,0.1611,0.1119,0.0795,0.0803,0.0433,0.0415,0.0327,0.03,0.0305,0,0]}],[{"header":{"parameterUnit":"m.s-1","parameterCategory":2,"la1":30.2992,"la2":30.254,"lo1":-89.0895,"lo2":-89.0443,"dy":0.0025,"dx":0.0025,"nx":19,"ny":19,"refTime":"2026-05-18T03:00:00:Z","depth":"2","parameterNumber":2,"parameterNumberName":"U-component_of_CURRENTS"},"data":[0,0,0,0.1842,0.1844,0.1914,0.1915,0.1979,0.1979,0,0,0,0,0,0,0,0,0,0,0,0.1811,0.1812,0.1842,0.1844,0.1914,0.1915,0.1979,0.1979,0,0,0,0,0,0,0,0,0,0,0,0.1811,0.1812,0.1813,0.1844,0.1914,0.1915,0.1979,0.193,0,0,0,0,0,0,0,0,0,0,0.1864,0.1836,0.1812,0.1813,0.1845,0.1914,0.1915,0.1928,0.1933,0.1942,0,0.1956,0,0.1976,0.1984,0.1984,0,0,0,0.1836,0.1832,0.186,0.1813,0.1845,0.1914,0.188,0.1931,0.1937,0.1948,0.1958,0.196,0.1977,0.1984,0.1985,0.2066,0.2066,0,0,0.1832,0.1815,0.1856,0.1864,0.1869,0.1878,0.1883,0.1935,0.1937,0.1958,0.1962,0.1978,0.1985,0.1985,0.2065,0.2066,0,0,0,0.1826,0.1812,0.1839,0.186,0.1879,0.188,0.1886,0.1934,0.1946,0.1963,0.1978,0.1985,0.1986,0.2065,0.2065,0.2132,0,0,0,0.1823,0.1809,0.1837,0.1826,0.1878,0.191,0.1884,0.1942,0.1949,0.1978,0.1985,0.1986,0.2064,0.2065,0.2129,0.2208,0,0,0,0.1807,0.1807,0.1819,0.1826,0.1862,0.191,0.1924,0.1944,0.1959,0.1984,0.1987,0.2064,0.2065,0.2127,0.2202,0.2357,0,0,0,0.1782,0.1798,0.1819,0.1844,0.1861,0.1912,0.1924,0.1958,0.1979,0.1985,0.2064,0.2065,0.2126,0.2198,0.2352,0.2324,0.2348,0,0,0.1787,0.1798,0.1814,0.1835,0.1881,0.1901,0.1964,0.1995,0.1998,0.2043,0.2045,0.213,0.2201,0.2356,0.2378,0.2401,0,0,0,0.1807,0.1819,0.1836,0.187,0.1909,0.1973,0.1997,0.2031,0.2088,0.2018,0.213,0.2174,0.227,0.2241,0.2258,0.207,0.207,0.207,0.2069,0.1783,0.1817,0.1848,0.1898,0.1942,0.2022,0.2097,0.2149,0.2119,0.2159,0.2226,0.2391,0.2355,0.2369,0.2197,0.2198,0.2198,0.2198,0.2198,0.1794,0.1812,0.1869,0.1913,0.1991,0.2057,0.2199,0.2229,0.2395,0.2299,0.2388,0.2308,0.2393,0.2203,0.2202,0.2202,0.2201,0.2201,0.22,0.1774,0.1786,0.1822,0.1893,0.199,0.2095,0.2275,0.2384,0.2485,0.2583,0.2599,0.2597,0.2495,0.2634,0.2635,0.2636,0.2637,0.2638,0.2639,0.173,0.1768,0.1791,0.1874,0.1931,0.2085,0.2333,0.2492,0.2686,0.2722,0.2722,0.2541,0.2527,0.2523,0.2654,0.2652,0.265,0.2648,0.2647,0.1693,0.1708,0.1741,0.1782,0.1926,0.2068,0.2306,0.2637,0.284,0.2947,0.2819,0.281,0.2816,0.2798,0.2801,0.2999,0.2999,0.2999,0.2999,0.1652,0.1667,0.1697,0.175,0.1877,0.2059,0.228,0.2448,0.2708,0.274,0.275,0.2567,0.2561,0.2541,0.2529,0.2521,0.2646,0.2645,0.2644,0.1621,0.164,0.1642,0.1706,0.1837,0.206,0.2162,0.2129,0.2329,0.2618,0.2565,0.2999,0.275,0.2733,0.2712,0.2689,0.2681,0,0]},{"header":{"parameterUnit":"m.s-1","parameterCategory":2,"la1":30.2992,"la2":30.254,"lo1":-89.0895,"lo2":-89.0443,"dy":0.0025,"dx":0.0025,"nx":19,"ny":19,"refTime":"2026-05-18T03:00:00:Z","depth":"2","parameterNumber":3,"parameterNumberName":"V-component_of_CURRENTS"},"data":[0,0,0,-0.0141,-0.0142,-0.0231,-0.0231,-0.0358,-0.0359,0,0,0,0,0,0,0,0,0,0,0,-0.0109,-0.0109,-0.0141,-0.0142,-0.0231,-0.0231,-0.0358,-0.0359,0,0,0,0,0,0,0,0,0,0,0,-0.0109,-0.0109,-0.011,-0.0143,-0.0231,-0.0231,-0.0357,-0.029,0,0,0,0,0,0,0,0,0,0,-0.0203,-0.0163,-0.0109,-0.011,-0.0143,-0.0231,-0.0231,-0.0287,-0.0294,-0.0318,0,-0.0324,0,-0.0341,-0.0367,-0.0367,0,0,0,-0.0154,-0.0157,-0.0184,-0.011,-0.0144,-0.023,-0.0194,-0.0291,-0.0299,-0.0328,-0.0326,-0.0331,-0.0343,-0.0367,-0.0368,-0.0427,-0.0427,0,0,-0.0149,-0.0126,-0.0178,-0.0189,-0.0158,-0.0191,-0.0197,-0.0296,-0.0299,-0.0327,-0.0334,-0.0345,-0.0368,-0.0369,-0.0427,-0.0427,0,0,0,-0.0127,-0.0122,-0.0147,-0.0184,-0.0197,-0.0193,-0.02,-0.0295,-0.0304,-0.0336,-0.0347,-0.0369,-0.037,-0.0427,-0.0427,-0.0287,0,0,0,-0.0125,-0.0109,-0.0144,-0.0132,-0.0194,-0.0244,-0.0196,-0.0297,-0.0309,-0.0346,-0.0369,-0.0371,-0.0428,-0.0427,-0.0291,-0.0153,0,0,0,-0.0106,-0.0107,-0.0115,-0.013,-0.0164,-0.0242,-0.0258,-0.03,-0.0315,-0.0367,-0.0372,-0.0428,-0.0427,-0.0295,-0.0163,0.0006,0,0,0,-0.0084,-0.0084,-0.0114,-0.0119,-0.0163,-0.0197,-0.0257,-0.0294,-0.0332,-0.0369,-0.0428,-0.0427,-0.0296,-0.0169,-0.0002,-0.0166,-0.0143,0,0,-0.0069,-0.0081,-0.0085,-0.0114,-0.0123,-0.0186,-0.0185,-0.0262,-0.0334,-0.0399,-0.04,-0.029,-0.0164,0.0004,-0.0136,-0.0114,0,0,0,-0.0071,-0.0064,-0.0076,-0.0089,-0.0128,-0.0117,-0.0208,-0.023,-0.0275,-0.0353,-0.0319,-0.0243,-0.0141,-0.0259,-0.0241,-0.0425,-0.0425,-0.0425,-0.0425,-0.0007,-0.0031,-0.0019,-0.0041,-0.0051,-0.0083,-0.0066,-0.0114,-0.0224,-0.0217,-0.0153,0.0045,-0.0087,-0.0074,-0.0224,-0.0224,-0.0223,-0.0223,-0.0222,0.0049,0.0068,0.0052,0.0061,0.0064,0.0076,0.0075,0.0039,0.0105,-0.0046,0.0044,-0.0137,-0.0047,-0.0212,-0.0214,-0.0215,-0.0216,-0.0217,-0.0218,0.0114,0.0123,0.0122,0.0157,0.022,0.0219,0.0399,0.0361,0.029,0.0369,0.0257,0.0251,0.0215,0.0413,0.0415,0.0416,0.0417,0.0418,0.0419,0.0188,0.0186,0.0235,0.0271,0.0342,0.0485,0.0614,0.0687,0.0611,0.0461,0.0457,0.0262,0.0241,0.0252,0.0439,0.0436,0.0433,0.0431,0.043,0.0277,0.0273,0.0359,0.0424,0.0613,0.0808,0.0868,0.0888,0.0943,0.0852,0.0501,0.0492,0.0462,0.0441,0.0455,0.0686,0.0686,0.0686,0.0686,0.0346,0.0344,0.0496,0.0653,0.0874,0.0987,0.1068,0.0909,0.0744,0.0568,0.0574,0.0332,0.0322,0.0272,0.0254,0.0259,0.0441,0.0441,0.0441,0.0415,0.0448,0.06,0.0749,0.1008,0.1186,0.1076,0.0784,0.0541,0.0438,0.0603,0.0656,0.0297,0.0284,0.0194,0.0172,0.0174,0,0]}],[{"header":{"parameterUnit":"m.s-1","parameterCategory":2,"la1":30.2992,"la2":30.254,"lo1":-89.0895,"lo2":-89.0443,"dy":0.0025,"dx":0.0025,"nx":19,"ny":19,"refTime":"2026-05-18T03:00:00:Z","depth":"4","parameterNumber":2,"parameterNumberName":"U-component_of_CURRENTS"},"data":[0,0,0,0.1143,0.1147,0.1317,0.1317,0.1465,0.1467,0,0,0,0,0,0,0,0,0,0,0,0.1078,0.1079,0.1143,0.1147,0.1317,0.1318,0.1465,0.1467,0,0,0,0,0,0,0,0,0,0,0,0.1077,0.1079,0.108,0.1148,0.1317,0.1318,0.1465,0.1355,0,0,0,0,0,0,0,0,0,0,0.1198,0.1172,0.1078,0.108,0.1149,0.1316,0.1318,0.135,0.1361,0.1368,0,0.1394,0,0.1435,0.1475,0.1475,0,0,0,0.1149,0.1163,0.1185,0.108,0.115,0.1316,0.1241,0.1357,0.137,0.1383,0.1397,0.1403,0.1438,0.1475,0.1476,0.1635,0.1636,0,0,0.114,0.1133,0.1176,0.1193,0.1194,0.1235,0.1246,0.1365,0.1391,0.1398,0.1407,0.144,0.1476,0.1477,0.1635,0.1636,0,0,0,0.1111,0.1126,0.1147,0.1186,0.1223,0.124,0.1253,0.1386,0.1386,0.1409,0.1442,0.1477,0.1478,0.1634,0.1635,0.17,0,0,0,0.1106,0.1109,0.1143,0.1144,0.1221,0.1324,0.127,0.1378,0.1393,0.1441,0.1477,0.148,0.1633,0.1634,0.1696,0.1706,0,0,0,0.107,0.1107,0.112,0.1143,0.1214,0.1322,0.1332,0.1383,0.1413,0.1475,0.148,0.1632,0.1634,0.1693,0.1701,0.1745,0,0,0,0.1064,0.1078,0.1121,0.1168,0.1212,0.1307,0.1332,0.143,0.1488,0.1478,0.1633,0.1635,0.1692,0.1698,0.1742,0.1528,0,0,0,0.1064,0.1079,0.1106,0.1147,0.1223,0.1284,0.1406,0.1496,0.1518,0.1586,0.1591,0.1698,0.1701,0.1744,0.1647,0,0,0,0,0.1095,0.1112,0.114,0.1215,0.1288,0.1388,0.1491,0.1545,0.1654,0.1562,0.172,0.172,0.1745,0.1613,0.1645,0.1644,0.1644,0.1644,0.1644,0.1049,0.1115,0.1172,0.1262,0.1338,0.1489,0.1572,0.167,0.1698,0.1768,0.1791,0.1889,0.1754,0.1819,0.182,0.182,0.1821,0.1821,0.1821,0.1056,0.1096,0.1205,0.1285,0.1403,0.1529,0.168,0.1746,0.1886,0.1879,0.1901,0.1712,0.1828,0.1827,0.1825,0.1825,0.1824,0.1824,0.1823,0.1038,0.1062,0.1144,0.1283,0.1424,0.1568,0.1704,0.1826,0.1921,0.1978,0.1849,0.1933,0.1907,0.2011,0.2011,0.2012,0.2012,0.2012,0.2012,0.0979,0.1055,0.1138,0.1275,0.1373,0.1523,0.1739,0.1819,0.1929,0.1893,0.2011,0.1952,0.1946,0.1918,0.2016,0.2016,0.2015,0.2015,0.2014,0.0946,0.0985,0.1098,0.1191,0.1383,0.1461,0.1664,0.176,0.1836,0.1836,0.184,0.1847,0.1798,0.1796,0.176,0.1815,0.1813,0.181,0,0.0898,0.093,0.107,0.1188,0.129,0.1422,0.148,0.1591,0.1683,0.1627,0.1838,0.1838,0.1842,0.1782,0.1777,0.1731,0,0,0,0.0869,0.0922,0.0998,0.113,0.1241,0.1334,0.1484,0.1486,0.1658,0.167,0.175,0.1766,0.1917,0.2029,0.1972,0.1964,0.1916,0,0]},{"header":{"parameterUnit":"m.s-1","parameterCategory":2,"la1":30.2992,"la2":30.254,"lo1":-89.0895,"lo2":-89.0443,"dy":0.0025,"dx":0.0025,"nx":19,"ny":19,"refTime":"2026-05-18T03:00:00:Z","depth":"4","parameterNumber":3,"parameterNumberName":"V-component_of_CURRENTS"},"data":[0,0,0,-0.007,-0.0071,-0.0136,-0.0137,-0.0219,-0.0219,0,0,0,0,0,0,0,0,0,0,0,-0.0046,-0.0046,-0.007,-0.0071,-0.0136,-0.0137,-0.0219,-0.0219,0,0,0,0,0,0,0,0,0,0,0,-0.0046,-0.0046,-0.0046,-0.0071,-0.0136,-0.0137,-0.0218,-0.0172,0,0,0,0,0,0,0,0,0,0,-0.011,-0.0088,-0.0046,-0.0046,-0.0072,-0.0136,-0.0137,-0.017,-0.0175,-0.0186,0,-0.0189,0,-0.0203,-0.0224,-0.0224,0,0,0,-0.0081,-0.0084,-0.0096,-0.0047,-0.0072,-0.0136,-0.011,-0.0173,-0.0178,-0.0192,-0.019,-0.0194,-0.0204,-0.0224,-0.0225,-0.0217,-0.0217,0,0,-0.0077,-0.0066,-0.0092,-0.0099,-0.0081,-0.0107,-0.0112,-0.0176,-0.0181,-0.0191,-0.0196,-0.0205,-0.0225,-0.0225,-0.0218,-0.0217,0,0,0,-0.0061,-0.0063,-0.0075,-0.0096,-0.0106,-0.0109,-0.0114,-0.0179,-0.0181,-0.0197,-0.0206,-0.0225,-0.0226,-0.0218,-0.0218,-0.0192,0,0,0,-0.0059,-0.0053,-0.0073,-0.0068,-0.0104,-0.0144,-0.0115,-0.0176,-0.0184,-0.0206,-0.0225,-0.0227,-0.0219,-0.0218,-0.0194,-0.0206,0,0,0,-0.0045,-0.0052,-0.0055,-0.0067,-0.009,-0.0143,-0.015,-0.0179,-0.019,-0.0224,-0.0227,-0.022,-0.0218,-0.0196,-0.0208,-0.0276,0,0,0,-0.0037,-0.0012,-0.0055,-0.0027,-0.0089,-0.008,-0.015,-0.0166,-0.0189,-0.0225,-0.0219,-0.0218,-0.0197,-0.021,-0.0276,-0.0165,0,0,0,0.0007,-0.0007,0.0014,-0.0025,-0.0009,-0.0072,-0.0063,-0.0136,-0.0171,-0.0201,-0.0202,-0.0194,-0.0208,-0.0276,-0.0082,0,0,0,0,0.0037,0.004,0.0045,0.0035,0.0026,-0.0014,-0.0067,-0.0103,-0.0151,-0.0177,-0.0172,-0.0182,-0.0227,-0.0159,-0.0211,-0.0211,-0.0211,-0.0211,-0.0211,0.0091,0.0083,0.01,0.0082,0.0079,0.0022,-0.0018,-0.0077,-0.0097,-0.0112,-0.0144,-0.0155,-0.0075,-0.0113,-0.0112,-0.0112,-0.0112,-0.0112,-0.0112,0.013,0.0125,0.0112,0.0121,0.0085,0.0078,0.0007,-0.0034,-0.0112,-0.0102,-0.0147,-0.0111,-0.0109,-0.011,-0.011,-0.011,-0.0111,-0.0111,-0.0111,0.0129,0.0124,0.013,0.0129,0.0112,0.0084,0.0037,-0.0039,-0.0106,-0.0141,-0.012,-0.0169,-0.0196,-0.0174,-0.0175,-0.0175,-0.0175,-0.0176,-0.0176,0.0113,0.012,0.013,0.0131,0.0132,0.0109,0.0031,-0.002,-0.0113,-0.0099,-0.0154,-0.0178,-0.0176,-0.0201,-0.0181,-0.018,-0.0179,-0.0179,-0.0178,0.0087,0.0104,0.0119,0.0126,0.0131,0.0116,0.0063,0.0006,-0.0069,-0.0107,-0.0098,-0.0101,-0.0124,-0.0125,-0.0149,-0.0112,-0.0111,-0.011,0,0.0072,0.008,0.0096,0.0105,0.0112,0.0105,0.0108,0.0059,-0.0051,-0.0039,-0.0139,-0.0132,-0.0131,-0.0159,-0.0157,-0.0184,0,0,0,0.0054,0.0069,0.006,0.0079,0.0087,0.0103,0.0103,0.0097,0.0002,-0.0001,-0.0074,-0.0083,-0.0099,-0.0195,-0.0239,-0.0237,-0.0281,0,0]}]]